Flag for Germany Weather past 2 weeks in Bad Vilbel, Hesse, Germany

Now
50 °F

Passing clouds.


Feels Like: 45 °F
Forecast: 41 / 48 °F
Wind: 12 mph from West

Location: Frankfurt / M-Flughafen

Current Time: Oct 21, 2014 at 10:01:51 PM

Latest Report: Oct 21, 2014 at 9:00 PM


Visibility: 19 mi

Pressure: 29.73 "Hg

Humidity: 77%

Dew point: 43 °F

Location of Bad VilbelLocation

Historic Weather in Bad Vilbel — Graph

°F

Bad Vilbel temperature yesterday

Maximum temperature yesterday: 67 °F (at 1:00 PM)
Minimum temperature yesterday: 53 °F (at 11:00 PM)
Average temperature yesterday: 62 °F

Past Weeks' High & Low Weather Summary

 TemperatureHumidityPressure
High71 °F (Oct 19, 4:00 PM)100% (Oct 10, 12:00 AM)30.20 "Hg (Oct 10, 12:00 AM)
Low47 °F (Oct 12, 7:00 AM)61% (Oct 20, 4:00 PM)29.58 "Hg (Oct 21, 6:00 PM)
Average58 °F91%29.89 "Hg
* Reported Oct 6 9:00 PM — Oct 21 9:00 PM, Bad Vilbel, Weather by CustomWeather, © 2014

Note: Actual official high and low records may vary slightly from our data, if they occured in-between our weather recording intervals... More about our weather records

Advertising

Bad Vilbel weather history for previous 24 hours

 ConditionsComfort  
Time TempWeatherWind HumidityBarometerVisibility
9:00 PM
Oct 21
50 °FPassing clouds.12 mph77%29.73 "Hg19 mi
8:00 PM52 °FPassing clouds.9 mph79%29.68 "Hg16 mi
7:00 PM52 °FLight rain. Low clouds.7 mph92%29.63 "Hg11 mi
6:00 PM57 °FLight rain. Overcast.10 mph86%29.58 "Hg12 mi
4:00 PM59 °FOvercast.9 mph69%29.68 "Hg31 mi
3:00 PM58 °FLight rain. Overcast.8 mph78%29.72 "Hg37 mi
2:00 PM59 °FPartly sunny.8 mph72%29.76 "Hg31 mi
1:00 PM57 °FOvercast.7 mph76%29.79 "Hg19 mi
12:00 PM57 °FOvercast.7 mph80%29.85 "Hg16 mi
10:00 AM52 °FPartly sunny.3 mph94%29.90 "Hg11 mi
9:00 AM50 °FPartly sunny.5 mph97%29.92 "Hg9 mi
8:00 AM49 °FLow clouds.3 mph97%29.93 "Hg11 mi
7:00 AM50 °FFog.5 mph97%29.93 "Hg11 mi
6:00 AM48 °FFog.2 mph97%29.95 "Hg12 mi
4:00 AM49 °FFog.1 mph95%29.98 "Hg19 mi
3:00 AM49 °FPassing clouds.1 mph95%30.00 "Hg22 mi
2:00 AM50 °FFog.2 mph94%30.00 "Hg22 mi
1:00 AM50 °FFog.2 mph95%30.01 "Hg22 mi
12:00 AM50 °FFog.1 mph94%30.01 "Hg22 mi
11:00 PM
Oct 20
53 °FFog.1 mph91%30.02 "Hg25 mi
10:00 PM54 °FFog.1 mph88%30.01 "Hg31 mi
Weather by CustomWeather, © 2014

See weather overviewHow to use our weather pages